Location: Paddlesworth
(51.1000°N, 1.1333°E)
Time: 04:40:21
(UTC+00:00)

CZ-2C R/B - Pass Details

Date: 11 May 2021
Orbit: 640 x 704 km, 98.3° (Epoch: 14 June)

Event Time Altitude Azimuth Distance (km) Brightness Sun altitude
Rises 21:07:40 0° 13° (NNE) 2,970 7.6 -12.0°
Reaches altitude 10° 21:09:52 10° 12° (NNE) 2,061 6.8 -12.2°
Maximum altitude 21:14:21 77° 287° (WNW) 677 3.8 -12.7°
Drops below altitude 10° 21:18:53 10° 202° (SSW) 2,078 6.0 -13.1°
Enters shadow 21:20:49 - 201° (SSW) 2,872 6.7 -13.3°
